Location: Newark
(35.0317°N, 117.3481°W)
Time: 20:28:47
(UTC+00:00)

OTV 5 (USA 277) - Visible Passes

Search period start: 17 October 2019 00:00
Search period end: 27 October 2019 00:00
Orbit: 310 x 324 km, 54.5° (Epoch: 08 October)

Date Brightness Start Highest point End Pass type
(mag) Time Alt. Az. Time Alt. Az. Time Alt. Az.
17 Oct ? 13:29:25 10° NNW 13:31:32 19° NE 13:33:37 10° E visible
19 Oct ? 12:25:04 11° N 12:26:14 13° NE 12:27:37 10° ENE visible
20 Oct ? 12:39:44 21° N 12:40:59 31° NE 12:43:28 10° ESE visible
21 Oct ? 12:54:32 33° WNW 12:55:34 68° SW 12:58:15 10° SE visible
22 Oct ? 13:09:28 18° WSW 13:09:58 19° SW 13:11:58 10° S visible
26 Oct ? 02:59:55 10° SW 03:00:05 11° SW 03:00:05 11° SW visible
